Tracking 19817 objects as of 19-Aug-2019
HD Live streaming from Space Station
objects crossing your sky now

METEOR 2-14

Track METEOR 2-14 now!
10-day predictions
METEOR 2-14 is classified as:


NORAD ID: 16735
Int'l Code: 1986-039A
Perigee: 941.1 km
Apogee: 963.5 km
Inclination: 82.5 °
Period: 103.9 minutes
Semi major axis: 7323 km
RCS: 4.6711 m2 (large)
Launch date: May 27, 1986
Source: Commonwealth of Independent States (former USSR) (CIS)
Launch site: PLESETSK MISSILE AND SPACE COMPLEX (PKMTR)
aabbcc
Your satellite tracking list
Your tracking list is empty




NASA's NSSDC Master Catalog

Two Line Element Set (TLE):
1 16735U 86039A   19228.78105861  .00000047  00000-0  28416-4 0  9992
2 16735  82.5358 113.7415 0015353  27.3972  36.8307 13.85294780679336
Source of the keplerian elements: AFSPC